Time,TemperatureF,DewpointF,PressureIn,WindDirection,WindDirectionDegrees,WindSpeedMPH,WindSpeedGustMPH,Humidity,HourlyPrecipIn,Conditions,Clouds,dailyrainin,SoftwareType,DateUTC
2013-02-23 00:00:00,45.0,42.0,-100.00,West,266,3.0,-999.0,87,0.00,,,-99.99,,2013-02-23 08:00:00,
2013-02-23 00:21:00,45.0,42.0,-100.00,West,266,3.0,-999.0,87,0.00,,,-99.99,,2013-02-23 08:21:00,
2013-02-23 00:32:00,45.0,42.0,-100.00,West,266,3.0,-999.0,87,0.00,,,-99.99,,2013-02-23 08:32:00,
2013-02-23 00:42:00,45.0,42.0,-100.00,West,266,3.0,-999.0,87,0.00,,,-99.99,,2013-02-23 08:42:00,
2013-02-23 00:52:00,45.0,42.0,-100.00,West,266,3.0,-999.0,87,0.00,,,-99.99,,2013-02-23 08:52:00,
2013-02-23 01:00:00,45.0,43.0,-100.00,West,264,4.0,-999.0,90,0.00,,,-99.99,,2013-02-23 09:00:00,
2013-02-23 01:22:00,45.0,43.0,-100.00,West,264,4.0,-999.0,90,0.00,,,-99.99,,2013-02-23 09:22:00,
2013-02-23 01:32:00,45.0,43.0,-100.00,West,264,4.0,-999.0,90,0.00,,,-99.99,,2013-02-23 09:32:00,
2013-02-23 01:42:00,45.0,43.0,-100.00,West,264,4.0,-999.0,90,0.00,,,-99.99,,2013-02-23 09:42:00,
2013-02-23 01:52:00,45.0,43.0,-100.00,West,264,4.0,-999.0,90,0.00,,,-99.99,,2013-02-23 09:52:00,
2013-02-23 02:00:00,46.0,43.0,-100.00,WSW,253,5.0,-999.0,90,0.00,,,-99.99,,2013-02-23 10:00:00,
2013-02-23 02:21:00,46.0,43.0,-100.00,WSW,253,5.0,-999.0,90,0.00,,,-99.99,,2013-02-23 10:21:00,
2013-02-23 02:32:00,46.0,43.0,-100.00,WSW,253,5.0,-999.0,90,0.00,,,-99.99,,2013-02-23 10:32:00,
2013-02-23 02:42:00,46.0,43.0,-100.00,WSW,253,5.0,-999.0,90,0.00,,,-99.99,,2013-02-23 10:42:00,
2013-02-23 02:52:00,46.0,43.0,-100.00,WSW,253,5.0,-999.0,90,0.00,,,-99.99,,2013-02-23 10:52:00,
2013-02-23 03:00:00,47.0,45.0,-100.00,WSW,242,14.0,-999.0,94,0.00,,,-99.99,,2013-02-23 11:00:00,
2013-02-23 03:22:00,47.0,45.0,-100.00,WSW,242,14.0,-999.0,94,0.00,,,-99.99,,2013-02-23 11:22:00,
2013-02-23 03:32:00,47.0,45.0,-100.00,WSW,242,14.0,-999.0,94,0.00,,,-99.99,,2013-02-23 11:32:00,
2013-02-23 03:42:00,47.0,45.0,-100.00,WSW,242,14.0,-999.0,94,0.00,,,-99.99,,2013-02-23 11:42:00,
2013-02-23 03:52:00,47.0,45.0,-100.00,WSW,242,14.0,-999.0,94,0.00,,,-99.99,,2013-02-23 11:52:00,
2013-02-23 04:00:00,46.0,45.0,-100.00,WNW,285,8.0,-999.0,95,0.00,,,-99.99,,2013-02-23 12:00:00,
2013-02-23 04:22:00,46.0,45.0,-100.00,WNW,285,8.0,-999.0,95,0.00,,,-99.99,,2013-02-23 12:22:00,
2013-02-23 04:32:00,46.0,45.0,-100.00,WNW,285,8.0,-999.0,95,0.00,,,-99.99,,2013-02-23 12:32:00,
2013-02-23 04:42:00,46.0,45.0,-100.00,WNW,285,8.0,-999.0,95,0.00,,,-99.99,,2013-02-23 12:42:00,
2013-02-23 04:52:00,46.0,45.0,-100.00,WNW,285,8.0,-999.0,95,0.00,,,-99.99,,2013-02-23 12:52:00,
2013-02-23 05:00:00,45.0,44.0,-100.00,West,272,7.0,-999.0,94,0.00,,,-99.99,,2013-02-23 13:00:00,
2013-02-23 05:22:00,45.0,44.0,-100.00,West,272,7.0,-999.0,94,0.00,,,-99.99,,2013-02-23 13:22:00,
2013-02-23 05:32:00,45.0,44.0,-100.00,West,272,7.0,-999.0,94,0.00,,,-99.99,,2013-02-23 13:32:00,
2013-02-23 05:42:00,45.0,44.0,-100.00,West,272,7.0,-999.0,94,0.00,,,-99.99,,2013-02-23 13:42:00,
2013-02-23 05:52:00,45.0,44.0,-100.00,West,272,7.0,-999.0,94,0.00,,,-99.99,,2013-02-23 13:52:00,
2013-02-23 06:00:00,44.0,42.0,-100.00,WNW,284,8.0,-999.0,93,0.00,,,-99.99,,2013-02-23 14:00:00,
2013-02-23 06:22:00,44.0,42.0,-100.00,WNW,284,8.0,-999.0,93,0.00,,,-99.99,,2013-02-23 14:22:00,
2013-02-23 06:32:00,44.0,42.0,-100.00,WNW,284,8.0,-999.0,93,0.00,,,-99.99,,2013-02-23 14:32:00,
2013-02-23 06:42:00,44.0,42.0,-100.00,WNW,284,8.0,-999.0,93,0.00,,,-99.99,,2013-02-23 14:42:00,
2013-02-23 06:52:00,44.0,42.0,-100.00,WNW,284,8.0,-999.0,93,0.00,,,-99.99,,2013-02-23 14:52:00,
2013-02-23 07:00:00,44.0,38.0,-100.00,WNW,283,9.0,-999.0,78,0.00,,,-99.99,,2013-02-23 15:00:00,
2013-02-23 07:22:00,44.0,38.0,-100.00,WNW,283,9.0,-999.0,78,0.00,,,-99.99,,2013-02-23 15:22:00,
2013-02-23 07:32:00,44.0,38.0,-100.00,WNW,283,9.0,-999.0,78,0.00,,,-99.99,,2013-02-23 15:32:00,
2013-02-23 07:42:00,44.0,38.0,-100.00,WNW,283,9.0,-999.0,78,0.00,,,-99.99,,2013-02-23 15:42:00,
2013-02-23 07:52:00,44.0,38.0,-100.00,WNW,283,9.0,-999.0,78,0.00,,,-99.99,,2013-02-23 15:52:00,
2013-02-23 08:00:00,45.0,35.0,-100.00,NW,306,18.0,-999.0,65,0.00,,,-99.99,,2013-02-23 16:00:00,
2013-02-23 08:22:00,45.0,35.0,-100.00,NW,306,18.0,-999.0,65,0.00,,,-99.99,,2013-02-23 16:22:00,
2013-02-23 08:32:00,45.0,35.0,-100.00,NW,306,18.0,-999.0,65,0.00,,,-99.99,,2013-02-23 16:32:00,
2013-02-23 08:42:00,45.0,35.0,-100.00,NW,306,18.0,-999.0,65,0.00,,,-99.99,,2013-02-23 16:42:00,
2013-02-23 08:52:00,45.0,35.0,-100.00,NW,306,18.0,-999.0,65,0.00,,,-99.99,,2013-02-23 16:52:00,
2013-02-23 09:00:00,47.0,34.0,-100.00,North,4,8.0,-999.0,60,0.00,,,-99.99,,2013-02-23 17:00:00,
2013-02-23 09:22:00,47.0,34.0,-100.00,North,4,8.0,-999.0,60,0.00,,,-99.99,,2013-02-23 17:22:00,
2013-02-23 09:32:00,47.0,34.0,-100.00,North,4,8.0,-999.0,60,0.00,,,-99.99,,2013-02-23 17:32:00,
2013-02-23 09:42:00,47.0,34.0,-100.00,North,4,8.0,-999.0,60,0.00,,,-99.99,,2013-02-23 17:42:00,
2013-02-23 09:52:00,47.0,34.0,-100.00,North,4,8.0,-999.0,60,0.00,,,-99.99,,2013-02-23 17:52:00,
2013-02-23 10:00:00,49.0,32.0,-100.00,North,356,17.0,-999.0,52,0.00,,,-99.99,,2013-02-23 18:00:00,
2013-02-23 10:22:00,49.0,32.0,-100.00,North,356,17.0,-999.0,52,0.00,,,-99.99,,2013-02-23 18:22:00,
2013-02-23 10:32:00,49.0,32.0,-100.00,North,356,17.0,-999.0,52,0.00,,,-99.99,,2013-02-23 18:32:00,
2013-02-23 10:42:00,49.0,32.0,-100.00,North,356,17.0,-999.0,52,0.00,,,-99.99,,2013-02-23 18:42:00,
2013-02-23 10:52:00,49.0,32.0,-100.00,North,356,17.0,-999.0,52,0.00,,,-99.99,,2013-02-23 18:52:00,
2013-02-23 11:00:00,51.0,31.0,-100.00,NNW,328,17.0,-999.0,47,0.00,,,-99.99,,2013-02-23 19:00:00,
2013-02-23 11:21:00,51.0,31.0,-100.00,NNW,328,17.0,-999.0,47,0.00,,,-99.99,,2013-02-23 19:21:00,
2013-02-23 11:32:00,51.0,31.0,-100.00,NNW,328,17.0,-999.0,47,0.00,,,-99.99,,2013-02-23 19:32:00,
2013-02-23 11:42:00,51.0,31.0,-100.00,NNW,328,17.0,-999.0,47,0.00,,,-99.99,,2013-02-23 19:42:00,
2013-02-23 11:52:00,51.0,31.0,-100.00,NNW,328,17.0,-999.0,47,0.00,,,-99.99,,2013-02-23 19:52:00,
2013-02-23 12:00:00,53.0,30.0,-100.00,North,352,12.0,-999.0,41,0.00,,,-99.99,,2013-02-23 20:00:00,
2013-02-23 12:22:00,53.0,30.0,-100.00,North,352,12.0,-999.0,41,0.00,,,-99.99,,2013-02-23 20:22:00,
2013-02-23 12:32:00,53.0,30.0,-100.00,North,352,12.0,-999.0,41,0.00,,,-99.99,,2013-02-23 20:32:00,
2013-02-23 12:42:00,53.0,30.0,-100.00,North,352,12.0,-999.0,41,0.00,,,-99.99,,2013-02-23 20:42:00,
2013-02-23 12:52:00,53.0,30.0,-100.00,North,352,12.0,-999.0,41,0.00,,,-99.99,,2013-02-23 20:52:00,
2013-02-23 13:00:00,55.0,29.0,-100.00,NNW,336,13.0,-999.0,37,0.00,,,-99.99,,2013-02-23 21:00:00,
2013-02-23 13:22:00,55.0,29.0,-100.00,NNW,336,13.0,-999.0,37,0.00,,,-99.99,,2013-02-23 21:22:00,
2013-02-23 13:32:00,55.0,29.0,-100.00,NNW,336,13.0,-999.0,37,0.00,,,-99.99,,2013-02-23 21:32:00,
2013-02-23 13:42:00,55.0,29.0,-100.00,NNW,336,13.0,-999.0,37,0.00,,,-99.99,,2013-02-23 21:42:00,
2013-02-23 13:52:00,55.0,29.0,-100.00,NNW,336,13.0,-999.0,37,0.00,,,-99.99,,2013-02-23 21:52:00,
2013-02-23 14:00:00,55.0,36.0,-100.00,WSW,245,16.0,-999.0,49,0.00,,,-99.99,,2013-02-23 22:00:00,
2013-02-23 14:22:00,55.0,36.0,-100.00,WSW,245,16.0,-999.0,49,0.00,,,-99.99,,2013-02-23 22:22:00,
2013-02-23 14:32:00,55.0,36.0,-100.00,WSW,245,16.0,-999.0,49,0.00,,,-99.99,,2013-02-23 22:32:00,
2013-02-23 14:42:00,55.0,36.0,-100.00,WSW,245,16.0,-999.0,49,0.00,,,-99.99,,2013-02-23 22:42:00,
2013-02-23 14:52:00,55.0,36.0,-100.00,WSW,245,16.0,-999.0,49,0.00,,,-99.99,,2013-02-23 22:52:00,
2013-02-23 15:00:00,54.0,37.0,-100.00,WSW,245,18.0,-999.0,51,0.00,,,-99.99,,2013-02-23 23:00:00,
2013-02-23 15:22:00,54.0,37.0,-100.00,WSW,245,18.0,-999.0,51,0.00,,,-99.99,,2013-02-23 23:22:00,
2013-02-23 15:32:00,54.0,37.0,-100.00,WSW,245,18.0,-999.0,51,0.00,,,-99.99,,2013-02-23 23:32:00,
2013-02-23 15:42:00,54.0,37.0,-100.00,WSW,245,18.0,-999.0,51,0.00,,,-99.99,,2013-02-23 23:42:00,
2013-02-23 15:52:00,54.0,37.0,-100.00,WSW,245,18.0,-999.0,51,0.00,,,-99.99,,2013-02-23 23:52:00,
2013-02-23 16:00:00,54.0,38.0,-100.00,West,271,8.0,-999.0,53,0.00,,,-99.99,,2013-02-24 00:00:00,
2013-02-23 16:22:00,54.0,38.0,-100.00,West,271,8.0,-999.0,53,0.00,,,-99.99,,2013-02-24 00:22:00,
2013-02-23 16:32:00,54.0,38.0,-100.00,West,271,8.0,-999.0,53,0.00,,,-99.99,,2013-02-24 00:32:00,
2013-02-23 16:42:00,54.0,38.0,-100.00,West,271,8.0,-999.0,53,0.00,,,-99.99,,2013-02-24 00:42:00,
2013-02-23 16:52:00,54.0,38.0,-100.00,West,271,8.0,-999.0,53,0.00,,,-99.99,,2013-02-24 00:52:00,
2013-02-23 17:00:00,52.0,38.0,-100.00,West,276,7.0,-999.0,58,0.00,,,-99.99,,2013-02-24 01:00:00,
2013-02-23 17:22:00,52.0,38.0,-100.00,West,276,7.0,-999.0,58,0.00,,,-99.99,,2013-02-24 01:22:00,
2013-02-23 17:32:00,52.0,38.0,-100.00,West,276,7.0,-999.0,58,0.00,,,-99.99,,2013-02-24 01:32:00,
2013-02-23 17:42:00,52.0,38.0,-100.00,West,276,7.0,-999.0,58,0.00,,,-99.99,,2013-02-24 01:42:00,
2013-02-23 17:52:00,52.0,38.0,-100.00,West,276,7.0,-999.0,58,0.00,,,-99.99,,2013-02-24 01:52:00,
2013-02-23 18:00:00,50.0,39.0,-100.00,WNW,296,11.0,-999.0,64,0.00,,,-99.99,,2013-02-24 02:00:00,
2013-02-23 18:22:00,50.0,39.0,-100.00,WNW,296,11.0,-999.0,64,0.00,,,-99.99,,2013-02-24 02:22:00,
2013-02-23 18:32:00,50.0,39.0,-100.00,WNW,296,11.0,-999.0,64,0.00,,,-99.99,,2013-02-24 02:32:00,
2013-02-23 18:42:00,50.0,39.0,-100.00,WNW,296,11.0,-999.0,64,0.00,,,-99.99,,2013-02-24 02:42:00,
2013-02-23 18:52:00,50.0,39.0,-100.00,WNW,296,11.0,-999.0,64,0.00,,,-99.99,,2013-02-24 02:52:00,
2013-02-23 19:00:00,49.0,36.0,-100.00,North,350,6.0,-999.0,60,0.00,,,-99.99,,2013-02-24 03:00:00,
2013-02-23 19:22:00,49.0,36.0,-100.00,North,350,6.0,-999.0,60,0.00,,,-99.99,,2013-02-24 03:22:00,
2013-02-23 19:32:00,49.0,36.0,-100.00,North,350,6.0,-999.0,60,0.00,,,-99.99,,2013-02-24 03:32:00,
2013-02-23 19:42:00,49.0,36.0,-100.00,North,350,6.0,-999.0,60,0.00,,,-99.99,,2013-02-24 03:42:00,
2013-02-23 19:52:00,49.0,36.0,-100.00,North,350,6.0,-999.0,60,0.00,,,-99.99,,2013-02-24 03:52:00,
2013-02-23 20:00:00,49.0,34.0,-100.00,NNW,345,10.0,-999.0,55,0.00,,,-99.99,,2013-02-24 04:00:00,
2013-02-23 20:22:00,49.0,34.0,-100.00,NNW,345,10.0,-999.0,55,0.00,,,-99.99,,2013-02-24 04:22:00,
2013-02-23 20:32:00,49.0,34.0,-100.00,NNW,345,10.0,-999.0,55,0.00,,,-99.99,,2013-02-24 04:32:00,
2013-02-23 20:42:00,49.0,34.0,-100.00,NNW,345,10.0,-999.0,55,0.00,,,-99.99,,2013-02-24 04:42:00,
2013-02-23 20:52:00,49.0,34.0,-100.00,NNW,345,10.0,-999.0,55,0.00,,,-99.99,,2013-02-24 04:52:00,
2013-02-23 21:00:00,47.0,33.0,-100.00,NNE,12,15.0,-999.0,59,0.00,,,-99.99,,2013-02-24 05:00:00,
2013-02-23 21:22:00,47.0,33.0,-100.00,NNE,12,15.0,-999.0,59,0.00,,,-99.99,,2013-02-24 05:22:00,
2013-02-23 21:32:00,47.0,33.0,-100.00,NNE,12,15.0,-999.0,59,0.00,,,-99.99,,2013-02-24 05:32:00,
2013-02-23 21:42:00,47.0,33.0,-100.00,NNE,12,15.0,-999.0,59,0.00,,,-99.99,,2013-02-24 05:42:00,
2013-02-23 21:52:00,47.0,33.0,-100.00,NNE,12,15.0,-999.0,59,0.00,,,-99.99,,2013-02-24 05:52:00,
2013-02-23 22:00:00,44.0,33.0,-100.00,NNE,27,10.0,-999.0,64,0.00,,,-99.99,,2013-02-24 06:00:00,
2013-02-23 22:21:00,44.0,33.0,-100.00,NNE,27,10.0,-999.0,64,0.00,,,-99.99,,2013-02-24 06:21:00,
2013-02-23 22:32:00,44.0,33.0,-100.00,NNE,27,10.0,-999.0,64,0.00,,,-99.99,,2013-02-24 06:32:00,
2013-02-23 22:42:00,44.0,33.0,-100.00,NNE,27,10.0,-999.0,64,0.00,,,-99.99,,2013-02-24 06:42:00,
2013-02-23 22:52:00,44.0,33.0,-100.00,NNE,27,10.0,-999.0,64,0.00,,,-99.99,,2013-02-24 06:52:00,
2013-02-23 23:00:00,43.0,33.0,-100.00,North,359,13.0,-999.0,66,0.00,,,-99.99,,2013-02-24 07:00:00,
2013-02-23 23:22:00,43.0,33.0,-100.00,North,359,13.0,-999.0,66,0.00,,,-99.99,,2013-02-24 07:22:00,
2013-02-23 23:32:00,43.0,33.0,-100.00,North,359,13.0,-999.0,66,0.00,,,-99.99,,2013-02-24 07:32:00,
2013-02-23 23:42:00,43.0,33.0,-100.00,North,359,13.0,-999.0,66,0.00,,,-99.99,,2013-02-24 07:42:00,
2013-02-23 23:52:00,43.0,33.0,-100.00,North,359,13.0,-999.0,66,0.00,,,-99.99,,2013-02-24 07:52:00,